STARLINK-1801, 46701

Orbit data source: Space-Track

STARLINK-1801, 46701 is a payload satellite owned by SpaceX/Seattle (US) in LEO that was launched on Sun, 18 Oct 2020 UTC via an FALCON 9 launch vehicle from the Air Force Eastern Test Range (AFETR). Payloads include a variety of satellites, spacecraft, and rockets equipped with specific instruments for various scientific and technological missions. These include communications satellites like Starlink; space stations such as the ISS; scientific satellites like the Hubble; Earth observation satellites from companies like Planet Labs, Umbra, and HawkEye 360; GPS; miniature CubeSats for education and research; and military/defense satellites.

Loading next visibility...
STARLINK-1801 details
Identifier
46701, 2020-073AH
Orbit
LEO
Last TLE update19 hours ago
Origin
Flag of USSpaceX/Seattle (US)
ManufacturerSpaceX/Seattle
MissionOperational Commercial Communications
Bus & MotorSTARLINK, Unknown motor
Mass260 kg wet, ~248 kg dry
Launch date (UTC)
2020-10-18 (4 years ago)
Launch vehicle
FALCON 9
Launch site
Air Force Eastern Test Range (AFETR)
Object type
Payload
Rocket body
Debris
Shape & HBRBox + 1 Pan, 8.86 m
Radar Cross Section13.562 m², Large (>1 m²)

Expand to show TLE details & history

TLE from 19 hours ago
0 STARLINK-1801
1 46701U 20073AH  24338.64967916  .00012951  00000-0  88586-3 0  9994
2 46701  53.0524 151.3058 0001334  89.4682 270.6459 15.06437010228125
Epoch: 2024-12-03T15:35Z
Definitive object data (Epoch: 2024-12-03T15:35:32.279Z)
Latitude-0.00009°
Longitude-155.53491°
Altitude547.967 km
Speed7.589 km/s
True Right ascension10h 05m 13s
True Declination0° 00' 00"
Sunlit
Object was in daylight at TLE epoch
Visualization TLE readout
Latitude-52.3729°
Longitude124.94154°
Altitude566.134 km
Speed7.577 km/s
Apparent Right ascension23h 57m 40s
Apparent Declination-67° 02' 13"
Sunlit
Object is in daylight
Visualization observer readout
Local Sidereal Time08:14:45
Azimuth209.7° SW
Elevation-49.404°
Doppler factor1
Orbital elements
Apogee altitude548.293 km
Perigee altitude546.445 km
Semi-major axis6,925.506 km
Eccentricity0.0001334
Inclination53.0524°
RAAN151.3058°
Arg. of periapsis89.4682°
True anomaly270.63061°
Mean anomaly270.6459°
Eccentric anomaly270.63826°
Mean motion3.76587 °/min
BSTAR0.00088586
Orbital period95.6 mins
Loading maneuver chart data...
Loading historical data...
Loading historical data...
Loading historical data...
Loading historical data...
Loading historical data...
Loading historical data...
Loading historical data...

STARLINK-1801 Visibility forecast

Observer location: undefined°, undefined

Span
Click to sort rows by Start time (UTC) header in descending order
Start Az.
Max El. time (UTC)
Max El. Az.
Max El.
End time (UTC)
End Az.
8 mins2024-12-04 14:02:19.377Z214.708° SW2024-12-04 14:06:19.377Z135.909° SSE40.259°2024-12-04 14:10:19.377Z57.281° ENE
5 mins2024-12-04 15:44:19.377Z295.057° NW2024-12-04 15:46:19.377Z340.532° N23.957°2024-12-04 15:49:19.377Z30.716° NE
4 mins2024-12-04 19:06:19.377Z353.952° N2024-12-04 19:07:19.377Z11.585° NNE16.524°2024-12-04 19:10:19.377Z59.122° ENE
6 mins2024-12-04 20:45:19.377Z322.616° NNW2024-12-04 20:47:19.377Z3.453° NNE38.892°2024-12-04 20:51:19.377Z114.95° SE
4 mins2024-12-04 22:25:19.377Z262.834° W2024-12-04 22:27:19.377Z225.536° WSW18.168°2024-12-04 22:29:19.377Z192.624° SSW
|